Home > Weather > Setúbal > Past weeks

Flag for Portugal Past Weather in Setúbal, Portugal — Yesterday and Last 2 Weeks

Now
73 °F

Passing clouds.


Feels Like: 77 °F
Forecast: 65 / 79 °F
Wind: 5 mph from Southeast

Location: Lisbon Portela Airport

Current Time: Jul 29, 2016 at 8:57:32 AM

Latest Report: Jul 29, 2016 at 8:30 AM


Visibility: N/A

Pressure: 29.92 "Hg

Humidity: 57%

Dew Point: 57 °F

Location of SetúbalLocation

Past Weather in Setúbal — Graph

°F

Setúbal Temperature Yesterday

Maximum temperature yesterday: 93 °F (at 3:30 PM)
Minimum temperature yesterday: 63 °F (at 4:30 AM)
Average temperature yesterday: 75 °F

High & Low Weather Summary for the Past Weeks

 TemperatureHumidityPressure
High97 °F (Jul 15, 3:00 PM)94% (Jul 26, 10:30 PM)30.09 "Hg (Jul 26, 10:30 PM)
Low63 °F (Jul 19, 6:30 AM)15% (Jul 15, 2:30 PM)29.89 "Hg (Jul 17, 7:30 PM)
Average77 °F52%30.01 "Hg
* Reported Jul 14 7:00 AM — Jul 29 7:30 AM, Setúbal, Weather by CustomWeather, © 2016

Note: Actual official high and low records may vary slightly from our data, if they occured in-between our weather recording intervals... More about our weather records

Advertising

Setúbal Weather History for the Previous 24 Hours

Scroll right to see more
 ConditionsComfort  
Time TempWeatherWind HumidityBarometerVisibility
7:30 AM
Fri, Jul 29
70 °FClear.1 mph64%29.92 "Hg10 mi
7:00 AM68 °FClear.No wind64%29.92 "Hg10 mi
6:30 AM68 °FClear.2 mph64%29.92 "Hg10 mi
6:00 AM68 °FClear.2 mph64%29.92 "Hg10 mi
5:30 AM70 °FClear.1 mph60%29.92 "Hg10 mi
5:00 AM70 °FClear.No wind60%29.92 "Hg10 mi
4:30 AM70 °FClear.1 mph60%29.92 "Hg10 mi
4:00 AM72 °FPassing clouds.3 mph61%29.92 "HgN/A
3:30 AM70 °FClear.2 mph64%29.92 "Hg10 mi
3:00 AM70 °FPassing clouds.3 mph64%29.92 "HgN/A
2:30 AM72 °FClear.3 mph61%29.92 "Hg10 mi
2:00 AM72 °FClear.5 mph61%29.92 "Hg10 mi
1:30 AM73 °FClear.2 mph57%29.95 "Hg10 mi
1:00 AM73 °FClear.1 mph57%29.95 "Hg10 mi
12:30 AM73 °FPassing clouds.7 mph57%29.95 "HgN/A
12:00 AM75 °FPassing clouds.7 mph54%29.95 "HgN/A
11:30 PM
Thu, Jul 28
75 °FPassing clouds.8 mph54%29.95 "HgN/A
11:00 PM75 °FClear.13 mph54%29.95 "Hg10 mi
10:30 PM75 °FClear.10 mph57%29.95 "Hg10 mi
10:00 PM75 °FClear.10 mph57%29.95 "Hg10 mi
9:30 PM75 °FSunny.13 mph57%29.95 "Hg10 mi
9:00 PM77 °FPassing clouds.7 mph57%29.95 "HgN/A
8:30 PM79 °FPassing clouds.8 mph58%29.95 "HgN/A
8:00 PM82 °FSunny.9 mph48%29.95 "Hg10 mi
7:30 PM88 °FPassing clouds.9 mph35%29.92 "HgN/A
7:00 PM88 °FSunny.10 mph35%29.92 "Hg10 mi
6:30 PM90 °FPassing clouds.8 mph29%29.92 "HgN/A
6:00 PM90 °FSunny.12 mph33%29.95 "Hg10 mi
5:30 PM91 °FPassing clouds.12 mph30%29.95 "HgN/A
5:00 PM90 °FSunny.13 mph31%29.95 "Hg10 mi
4:30 PM93 °FPassing clouds.8 mph24%29.95 "HgN/A
4:00 PM93 °FPassing clouds.9 mph23%29.95 "HgN/A
3:30 PM93 °FSunny.6 mph28%29.98 "Hg10 mi
3:00 PM90 °FPassing clouds.7 mph38%29.98 "HgN/A
2:30 PM88 °FSunny.7 mph43%29.98 "Hg10 mi
2:00 PM86 °FPassing clouds.6 mph46%29.98 "HgN/A
1:30 PM86 °FPassing clouds.5 mph46%29.98 "HgN/A
1:00 PM82 °FPassing clouds.5 mph51%30.01 "HgN/A
12:30 PM82 °FSunny.6 mph55%30.01 "Hg10 mi
12:00 PM81 °FPassing clouds.5 mph54%30.01 "HgN/A
11:30 AM79 °FSunny.5 mph58%30.01 "Hg10 mi
11:00 AM77 °FPassing clouds.5 mph61%30.01 "HgN/A
10:30 AM73 °FPassing clouds.7 mph65%30.01 "HgN/A
10:00 AM70 °FPassing clouds.10 mph73%30.01 "HgN/A
9:30 AM68 °FPassing clouds.10 mph78%30.01 "HgN/A
9:00 AM66 °FPassing clouds.10 mph83%30.01 "HgN/A
8:30 AM64 °FPassing clouds.10 mph88%30.01 "HgN/A
8:00 AM64 °FPassing clouds.10 mph88%29.98 "HgN/A
Weather by CustomWeather, © 2016

See weather overviewHow to use our weather pages